Time,TemperatureF,DewpointF,PressureIn,WindDirection,WindDirectionDegrees,WindSpeedMPH,WindSpeedGustMPH,Humidity,HourlyPrecipIn,Conditions,Clouds,dailyrainin,SoftwareType,DateUTC
2013-07-19 00:00:00,72.6,54.0,28.30,WNW,295,0.0,21.5,95,0.00,,,-99.99,HOBO +U30 +Weather +,2013-07-19 07:00:00,
2013-07-19 00:15:00,72.5,53.3,28.30,WNW,295,0.0,0.0,95,0.00,,,-99.99,HOBO +U30 +Weather +,2013-07-19 07:15:00,
2013-07-19 00:30:00,72.4,53.3,28.30,WNW,295,0.0,0.4,95,0.00,,,-99.99,HOBO +U30 +Weather +,2013-07-19 07:30:00,
2013-07-19 00:48:00,72.2,53.2,28.30,WNW,295,0.0,20.4,95,0.00,,,-99.99,HOBO +U30 +Weather +,2013-07-19 07:48:00,
2013-07-19 01:00:00,72.1,52.7,28.29,WNW,295,0.0,0.0,96,0.00,,,-99.99,HOBO +U30 +Weather +,2013-07-19 08:00:00,
2013-07-19 01:15:00,71.9,52.5,28.30,WNW,295,0.0,0.0,96,0.00,,,-99.99,HOBO +U30 +Weather +,2013-07-19 08:15:00,
2013-07-19 01:30:00,71.7,52.1,28.29,WNW,295,0.0,0.0,96,0.00,,,-99.99,HOBO +U30 +Weather +,2013-07-19 08:30:00,
2013-07-19 01:49:00,71.6,52.0,28.29,WNW,295,0.0,0.4,95,0.00,,,-99.99,HOBO +U30 +Weather +,2013-07-19 08:49:00,
2013-07-19 02:00:00,71.5,51.6,28.29,WNW,295,0.0,0.0,96,0.00,,,-99.99,HOBO +U30 +Weather +,2013-07-19 09:00:00,
2013-07-19 02:15:00,71.3,51.7,28.29,WNW,295,0.0,0.0,97,0.00,,,-99.99,HOBO +U30 +Weather +,2013-07-19 09:15:00,
2013-07-19 02:30:00,71.2,50.7,28.29,WNW,295,0.0,1.3,96,0.00,,,-99.99,HOBO +U30 +Weather +,2013-07-19 09:30:00,
2013-07-19 02:49:00,71.0,51.0,28.29,WNW,295,0.0,21.5,96,0.00,,,-99.99,HOBO +U30 +Weather +,2013-07-19 09:49:00,
2013-07-19 03:00:00,70.9,49.9,28.29,WNW,295,0.0,21.9,96,0.00,,,-99.99,HOBO +U30 +Weather +,2013-07-19 10:00:00,
2013-07-19 03:15:00,70.7,49.6,28.29,WNW,295,0.0,23.3,96,0.00,,,-99.99,HOBO +U30 +Weather +,2013-07-19 10:15:00,
2013-07-19 03:30:00,70.6,50.2,28.29,WNW,295,0.0,23.3,96,0.00,,,-99.99,HOBO +U30 +Weather +,2013-07-19 10:30:00,
2013-07-19 03:49:00,70.4,49.4,28.29,WNW,295,0.0,21.3,96,0.00,,,-99.99,HOBO +U30 +Weather +,2013-07-19 10:49:00,
2013-07-19 04:00:00,70.3,49.5,28.29,WNW,295,0.0,21.5,97,0.00,,,-99.99,HOBO +U30 +Weather +,2013-07-19 11:00:00,
2013-07-19 04:15:00,70.1,50.4,28.29,WNW,295,0.0,20.8,96,0.00,,,-99.99,HOBO +U30 +Weather +,2013-07-19 11:15:00,
2013-07-19 04:30:00,70.0,50.3,28.29,WNW,295,0.0,21.3,95,0.00,,,-99.99,HOBO +U30 +Weather +,2013-07-19 11:30:00,
2013-07-19 04:49:00,69.8,50.3,28.29,WNW,295,0.0,0.9,95,0.00,,,-99.99,HOBO +U30 +Weather +,2013-07-19 11:49:00,
2013-07-19 05:00:00,69.7,51.2,28.29,WNW,295,0.0,2.0,94,0.00,,,-99.99,HOBO +U30 +Weather +,2013-07-19 12:00:00,
2013-07-19 05:15:00,69.5,51.3,28.30,WNW,295,0.0,0.9,95,0.00,,,-99.99,HOBO +U30 +Weather +,2013-07-19 12:15:00,
2013-07-19 05:30:00,69.4,51.5,28.30,WNW,295,0.0,20.4,94,0.00,,,-99.99,HOBO +U30 +Weather +,2013-07-19 12:30:00,
2013-07-19 05:48:00,69.3,51.8,28.30,WNW,295,0.0,20.8,95,0.00,,,-99.99,HOBO +U30 +Weather +,2013-07-19 12:48:00,
2013-07-19 06:00:00,69.2,52.2,28.30,WNW,295,0.0,18.6,94,0.00,,,-99.99,HOBO +U30 +Weather +,2013-07-19 13:00:00,
2013-07-19 06:15:00,69.1,52.6,28.30,WNW,295,0.0,19.5,95,0.00,,,-99.99,HOBO +U30 +Weather +,2013-07-19 13:15:00,
2013-07-19 06:30:00,69.0,53.3,28.30,WNW,295,0.0,18.6,94,0.00,,,-99.99,HOBO +U30 +Weather +,2013-07-19 13:30:00,
2013-07-19 06:45:00,68.9,53.0,28.30,WNW,295,0.0,19.5,94,0.00,,,-99.99,HOBO +U30 +Weather +,2013-07-19 13:45:00,
2013-07-19 07:00:00,68.8,53.2,28.30,WNW,295,0.0,17.4,94,0.00,,,-99.99,HOBO +U30 +Weather +,2013-07-19 14:00:00,
2013-07-19 07:15:00,68.7,54.2,28.30,WNW,295,0.0,18.6,94,0.00,,,-99.99,HOBO +U30 +Weather +,2013-07-19 14:15:00,
2013-07-19 07:30:00,68.6,54.2,28.30,WNW,295,0.0,17.4,94,0.00,,,-99.99,HOBO +U30 +Weather +,2013-07-19 14:30:00,
2013-07-19 07:45:00,68.6,54.7,28.30,WNW,295,0.4,17.9,94,0.00,,,-99.99,HOBO +U30 +Weather +,2013-07-19 14:45:00,
2013-07-19 08:00:00,68.5,54.9,28.30,WNW,295,0.0,20.8,92,0.00,,,-99.99,HOBO +U30 +Weather +,2013-07-19 15:00:00,
2013-07-19 08:15:00,68.4,54.1,28.30,WNW,291,0.0,21.9,87,0.00,,,-99.99,HOBO +U30 +Weather +,2013-07-19 15:15:00,
2013-07-19 08:30:00,68.4,55.6,28.30,WSW,241,0.0,17.9,87,0.00,,,-99.99,HOBO +U30 +Weather +,2013-07-19 15:30:00,
2013-07-19 08:45:00,68.3,55.9,28.29,SW,232,0.0,20.4,88,0.00,,,-99.99,HOBO +U30 +Weather +,2013-07-19 15:45:00,
2013-07-19 09:00:00,68.2,56.6,28.29,SW,229,0.0,18.6,88,0.00,,,-99.99,HOBO +U30 +Weather +,2013-07-19 16:00:00,
2013-07-19 09:15:00,68.2,57.5,28.29,WSW,243,0.0,22.8,85,0.00,,,-99.99,HOBO +U30 +Weather +,2013-07-19 16:15:00,
2013-07-19 09:30:00,68.1,58.7,28.29,WSW,240,1.3,19.5,78,0.00,,,-99.99,HOBO +U30 +Weather +,2013-07-19 16:30:00,
2013-07-19 09:45:00,68.1,58.3,28.29,WSW,237,2.5,27.1,78,0.00,,,-99.99,HOBO +U30 +Weather +,2013-07-19 16:45:00,
2013-07-19 10:00:00,68.1,59.8,28.28,WNW,288,2.9,26.6,76,0.00,,,-99.99,HOBO +U30 +Weather +,2013-07-19 17:00:00,
2013-07-19 10:15:00,68.1,60.4,28.28,NW,312,2.0,24.8,71,0.00,,,-99.99,HOBO +U30 +Weather +,2013-07-19 17:15:00,
2013-07-19 10:30:00,68.1,58.9,28.28,NW,310,2.9,16.6,72,0.00,,,-99.99,HOBO +U30 +Weather +,2013-07-19 17:30:00,
2013-07-19 10:45:00,68.2,59.4,28.28,West,279,3.8,22.8,72,0.00,,,-99.99,HOBO +U30 +Weather +,2013-07-19 17:45:00,
2013-07-19 11:00:00,68.3,60.7,28.28,WNW,303,2.9,8.7,72,0.00,,,-99.99,HOBO +U30 +Weather +,2013-07-19 18:00:00,
2013-07-19 11:15:00,68.4,61.0,28.27,WNW,300,3.8,20.8,68,0.00,,,-99.99,HOBO +U30 +Weather +,2013-07-19 18:15:00,
2013-07-19 11:30:00,68.5,62.7,28.27,West,271,3.4,22.8,65,0.00,,,-99.99,HOBO +U30 +Weather +,2013-07-19 18:30:00,
2013-07-19 11:45:00,68.6,61.8,28.27,WNW,295,3.4,23.3,66,0.00,,,-99.99,HOBO +U30 +Weather +,2013-07-19 18:45:00,
2013-07-19 12:00:00,68.8,61.5,28.27,NW,323,3.4,9.6,67,0.00,,,-99.99,HOBO +U30 +Weather +,2013-07-19 19:00:00,
2013-07-19 12:15:00,69.0,62.3,28.26,WNW,289,4.5,10.3,65,0.00,,,-99.99,HOBO +U30 +Weather +,2013-07-19 19:15:00,
2013-07-19 12:30:00,69.2,62.6,28.26,WSW,257,4.5,11.2,64,0.00,,,-99.99,HOBO +U30 +Weather +,2013-07-19 19:30:00,
2013-07-19 12:45:00,69.4,61.7,28.25,West,264,6.3,22.8,67,0.00,,,-99.99,HOBO +U30 +Weather +,2013-07-19 19:45:00,
2013-07-19 13:00:00,69.7,62.3,28.25,WSW,256,7.2,30.6,66,0.00,,,-99.99,HOBO +U30 +Weather +,2013-07-19 20:00:00,
2013-07-19 13:15:00,69.9,62.1,28.25,West,278,4.9,20.8,64,0.00,,,-99.99,HOBO +U30 +Weather +,2013-07-19 20:15:00,
2013-07-19 13:30:00,70.2,62.5,28.25,WNW,284,6.7,26.2,65,0.00,,,-99.99,HOBO +U30 +Weather +,2013-07-19 20:30:00,
2013-07-19 13:45:00,70.4,62.2,28.25,WNW,282,6.3,15.0,63,0.00,,,-99.99,HOBO +U30 +Weather +,2013-07-19 20:45:00,
2013-07-19 14:00:00,70.7,62.2,28.24,West,278,7.4,32.4,62,0.00,,,-99.99,HOBO +U30 +Weather +,2013-07-19 21:00:00,
2013-07-19 14:15:00,71.0,63.0,28.24,West,278,6.7,17.4,62,0.00,,,-99.99,HOBO +U30 +Weather +,2013-07-19 21:15:00,
2013-07-19 14:30:00,71.3,62.0,28.24,West,272,6.3,16.6,60,0.00,,,-99.99,HOBO +U30 +Weather +,2013-07-19 21:30:00,
2013-07-19 14:45:00,71.6,62.7,28.24,West,275,5.8,19.9,60,0.00,,,-99.99,HOBO +U30 +Weather +,2013-07-19 21:45:00,
2013-07-19 15:00:00,71.8,62.3,28.24,West,268,6.7,26.2,62,0.00,,,-99.99,HOBO +U30 +Weather +,2013-07-19 22:00:00,
2013-07-19 15:15:00,72.2,62.7,28.23,West,274,5.4,17.9,61,0.00,,,-99.99,HOBO +U30 +Weather +,2013-07-19 22:15:00,
2013-07-19 15:30:00,72.4,62.3,28.23,West,271,6.3,25.7,58,0.00,,,-99.99,HOBO +U30 +Weather +,2013-07-19 22:30:00,
2013-07-19 15:45:00,72.8,61.7,28.23,West,264,6.3,27.7,57,0.00,,,-99.99,HOBO +U30 +Weather +,2013-07-19 22:45:00,
2013-07-19 16:00:00,73.0,60.9,28.23,West,268,6.7,14.5,55,0.00,,,-99.99,HOBO +U30 +Weather +,2013-07-19 23:00:00,
2013-07-19 16:15:00,73.3,61.2,28.22,West,260,6.7,26.2,56,0.00,,,-99.99,HOBO +U30 +Weather +,2013-07-19 23:15:00,
2013-07-19 16:30:00,73.7,60.4,28.22,West,277,6.3,15.9,56,0.00,,,-99.99,HOBO +U30 +Weather +,2013-07-19 23:30:00,
2013-07-19 16:45:00,73.9,61.2,28.22,West,272,6.7,14.5,55,0.00,,,-99.99,HOBO +U30 +Weather +,2013-07-19 23:45:00,
2013-07-19 17:00:00,74.2,60.5,28.22,West,277,6.3,32.0,53,0.00,,,-99.99,HOBO +U30 +Weather +,2013-07-20 00:00:00,
2013-07-19 17:15:00,74.5,59.8,28.21,West,268,7.2,18.3,54,0.00,,,-99.99,HOBO +U30 +Weather +,2013-07-20 00:15:00,
2013-07-19 17:30:00,74.8,59.9,28.21,West,281,5.8,14.5,54,0.00,,,-99.99,HOBO +U30 +Weather +,2013-07-20 00:30:00,
2013-07-19 17:45:00,74.9,59.5,28.20,West,263,6.3,14.1,54,0.00,,,-99.99,HOBO +U30 +Weather +,2013-07-20 00:45:00,
2013-07-19 18:00:00,75.1,59.7,28.20,West,264,5.8,15.9,54,0.00,,,-99.99,HOBO +U30 +Weather +,2013-07-20 01:00:00,
2013-07-19 18:15:00,75.3,59.2,28.20,West,260,5.4,15.0,55,0.00,,,-99.99,HOBO +U30 +Weather +,2013-07-20 01:15:00,
2013-07-19 18:30:00,75.4,59.5,28.20,West,279,5.4,13.6,57,0.00,,,-99.99,HOBO +U30 +Weather +,2013-07-20 01:30:00,
2013-07-19 18:45:00,75.5,59.5,28.20,West,278,4.9,22.4,58,0.00,,,-99.99,HOBO +U30 +Weather +,2013-07-20 01:45:00,
2013-07-19 19:00:00,75.5,60.0,28.20,West,274,4.9,25.7,58,0.00,,,-99.99,HOBO +U30 +Weather +,2013-07-20 02:00:00,
2013-07-19 19:15:00,75.5,60.5,28.21,West,272,4.5,27.1,60,0.00,,,-99.99,HOBO +U30 +Weather +,2013-07-20 02:15:00,
2013-07-19 19:30:00,75.6,59.8,28.21,WNW,288,4.3,10.1,62,0.00,,,-99.99,HOBO +U30 +Weather +,2013-07-20 02:30:00,
2013-07-19 19:45:00,75.6,59.5,28.21,WNW,286,4.5,24.8,63,0.00,,,-99.99,HOBO +U30 +Weather +,2013-07-20 02:45:00,
2013-07-19 20:00:00,75.6,59.2,28.21,NW,305,3.8,25.7,69,0.00,,,-99.99,HOBO +U30 +Weather +,2013-07-20 03:00:00,
2013-07-19 20:15:00,75.6,59.2,28.20,NNW,341,2.9,21.9,73,0.00,,,-99.99,HOBO +U30 +Weather +,2013-07-20 03:15:00,
2013-07-19 20:30:00,75.5,59.1,28.21,North,355,2.5,21.9,76,0.00,,,-99.99,HOBO +U30 +Weather +,2013-07-20 03:30:00,
2013-07-19 20:45:00,75.5,58.9,28.21,NNW,348,2.0,3.8,78,0.00,,,-99.99,HOBO +U30 +Weather +,2013-07-20 03:45:00,
2013-07-19 21:00:00,75.5,58.9,28.22,North,355,0.9,23.3,79,0.00,,,-99.99,HOBO +U30 +Weather +,2013-07-20 04:00:00,
2013-07-19 21:15:00,75.4,58.7,28.22,North,0,0.4,22.8,84,0.00,,,-99.99,HOBO +U30 +Weather +,2013-07-20 04:15:00,
2013-07-19 21:30:00,75.4,58.5,28.23,North,0,0.4,2.5,87,0.00,,,-99.99,HOBO +U30 +Weather +,2013-07-20 04:30:00,
2013-07-19 21:45:00,75.3,58.1,28.23,North,0,0.9,26.2,87,0.00,,,-99.99,HOBO +U30 +Weather +,2013-07-20 04:45:00,
2013-07-19 22:00:00,75.2,57.7,28.23,North,0,0.4,2.0,89,0.00,,,-99.99,HOBO +U30 +Weather +,2013-07-20 05:00:00,
2013-07-19 22:15:00,75.1,57.4,28.23,North,0,0.0,1.3,91,0.00,,,-99.99,HOBO +U30 +Weather +,2013-07-20 05:15:00,
2013-07-19 22:30:00,75.0,57.1,28.23,North,0,0.0,0.0,91,0.00,,,-99.99,HOBO +U30 +Weather +,2013-07-20 05:30:00,
2013-07-19 22:45:00,74.9,56.9,28.23,North,0,0.0,0.0,92,0.00,,,-99.99,HOBO +U30 +Weather +,2013-07-20 05:45:00,
2013-07-19 23:00:00,74.7,56.3,28.23,North,0,0.0,23.7,93,0.00,,,-99.99,HOBO +U30 +Weather +,2013-07-20 06:00:00,
2013-07-19 23:15:00,74.6,56.2,28.22,North,0,0.0,2.0,93,0.00,,,-99.99,HOBO +U30 +Weather +,2013-07-20 06:15:00,
2013-07-19 23:30:00,74.5,55.9,28.22,North,0,0.0,26.2,94,0.00,,,-99.99,HOBO +U30 +Weather +,2013-07-20 06:30:00,
2013-07-19 23:45:00,74.3,55.7,28.22,North,0,0.0,24.8,94,0.00,,,-99.99,HOBO +U30 +Weather +,2013-07-20 06:45:00,